TimeCDT,TemperatureF,Dew PointF,Humidity,Sea Level PressureIn,VisibilityMPH,Wind Direction,Wind SpeedMPH,Gust SpeedMPH,PrecipitationIn,Events,Conditions,WindDirDegrees,DateUTC
12:15 AM,50.0,49.5,98,30.01,10.0,Calm,Calm,-,N/A,,Scattered Clouds,0,2013-06-30 05:15:00
12:35 AM,50.2,49.6,98,30.01,10.0,Calm,Calm,-,N/A,,Clear,0,2013-06-30 05:35:00
12:55 AM,50.0,49.3,97,30.01,10.0,Calm,Calm,-,N/A,,Clear,0,2013-06-30 05:55:00
1:15 AM,49.6,49.3,99,30.01,10.0,SW,3.5,-,N/A,,Clear,230,2013-06-30 06:15:00
1:35 AM,49.5,48.6,97,30.02,10.0,Calm,Calm,-,N/A,,Clear,0,2013-06-30 06:35:00
1:55 AM,49.5,48.6,97,30.02,10.0,SW,3.5,-,N/A,,Clear,220,2013-06-30 06:55:00
2:15 AM,48.6,48.2,99,30.02,10.0,Calm,Calm,-,N/A,,Clear,0,2013-06-30 07:15:00
2:35 AM,48.0,47.7,99,30.02,10.0,Calm,Calm,-,N/A,,Clear,0,2013-06-30 07:35:00
2:55 AM,46.4,46.0,99,30.03,7.0,Calm,Calm,-,N/A,,Clear,0,2013-06-30 07:55:00
3:15 AM,45.7,45.5,99,30.03,7.0,Calm,Calm,-,N/A,,Clear,0,2013-06-30 08:15:00
3:35 AM,46.8,46.8,100,30.03,10.0,Calm,Calm,-,N/A,,Clear,0,2013-06-30 08:35:00
3:55 AM,48.2,48.2,100,30.03,10.0,SW,3.5,-,N/A,,Clear,230,2013-06-30 08:55:00
4:15 AM,47.3,46.6,97,30.04,10.0,Calm,Calm,-,N/A,,Clear,0,2013-06-30 09:15:00
4:35 AM,47.7,47.1,98,30.04,10.0,Calm,Calm,-,N/A,,Clear,0,2013-06-30 09:35:00
4:55 AM,46.2,45.7,98,30.05,10.0,Calm,Calm,-,N/A,,Clear,0,2013-06-30 09:55:00
5:15 AM,46.2,45.9,99,30.05,10.0,Calm,Calm,-,N/A,,Clear,0,2013-06-30 10:15:00
5:35 AM,47.1,46.6,98,30.06,10.0,SSW,3.5,-,N/A,,Clear,210,2013-06-30 10:35:00
5:55 AM,48.6,47.7,97,30.06,10.0,Calm,Calm,-,N/A,,Clear,0,2013-06-30 10:55:00
6:15 AM,49.6,48.6,96,30.07,10.0,Calm,Calm,-,N/A,,Clear,0,2013-06-30 11:15:00
6:35 AM,50.7,49.3,95,30.07,10.0,SSW,3.5,-,N/A,,Clear,210,2013-06-30 11:35:00
6:55 AM,52.7,51.1,94,30.07,10.0,Calm,Calm,-,N/A,,Clear,0,2013-06-30 11:55:00
7:15 AM,54.5,52.0,91,30.07,10.0,SW,3.5,-,N/A,,Clear,220,2013-06-30 12:15:00
7:35 AM,56.5,52.9,88,30.07,10.0,SSW,3.5,-,N/A,,Clear,210,2013-06-30 12:35:00
7:55 AM,59.4,55.0,86,30.08,10.0,SSW,3.5,-,N/A,,Clear,210,2013-06-30 12:55:00
8:15 AM,61.9,55.6,80,30.08,10.0,South,3.5,-,N/A,,Clear,190,2013-06-30 13:15:00
8:35 AM,64.2,56.3,75,30.08,10.0,South,3.5,-,N/A,,Clear,190,2013-06-30 13:35:00
8:55 AM,65.7,56.5,72,30.08,10.0,SSW,3.5,-,N/A,,Clear,200,2013-06-30 13:55:00
9:15 AM,67.8,57.7,70,30.08,10.0,Calm,Calm,-,N/A,,Clear,0,2013-06-30 14:15:00
9:35 AM,69.3,56.5,64,30.08,10.0,Calm,Calm,-,N/A,,Clear,0,2013-06-30 14:35:00
9:55 AM,71.1,56.7,60,30.08,10.0,Calm,Calm,-,N/A,,Clear,0,2013-06-30 14:55:00
10:15 AM,72.5,56.7,57,30.08,10.0,Calm,Calm,-,N/A,,Clear,0,2013-06-30 15:15:00
10:35 AM,73.9,58.1,58,30.08,10.0,South,3.5,-,N/A,,Clear,170,2013-06-30 15:35:00
10:55 AM,75.7,55.2,49,30.08,10.0,Calm,Calm,-,N/A,,Clear,0,2013-06-30 15:55:00
11:15 AM,76.6,55.0,47,30.08,10.0,Calm,Calm,-,N/A,,Clear,0,2013-06-30 16:15:00
11:35 AM,77.4,54.5,45,30.08,10.0,NE,3.5,-,N/A,,Clear,40,2013-06-30 16:35:00
11:55 AM,77.5,53.4,43,30.08,10.0,North,4.6,-,N/A,,Clear,10,2013-06-30 16:55:00
12:15 PM,78.3,54.0,43,30.08,10.0,East,4.6,-,N/A,,Clear,80,2013-06-30 17:15:00
12:35 PM,79.5,52.9,40,30.07,10.0,NE,5.8,-,N/A,,Clear,50,2013-06-30 17:35:00
12:55 PM,79.9,50.5,36,30.07,10.0,Calm,Calm,-,N/A,,Clear,0,2013-06-30 17:55:00
1:15 PM,81.0,50.0,34,30.07,10.0,NNE,4.6,-,N/A,,Clear,30,2013-06-30 18:15:00
1:35 PM,81.0,47.8,31,30.07,10.0,North,3.5,-,N/A,,Scattered Clouds,350,2013-06-30 18:35:00
1:55 PM,81.0,48.7,32,30.07,10.0,Calm,Calm,-,N/A,,Clear,0,2013-06-30 18:55:00
2:15 PM,81.1,50.0,34,30.07,10.0,SE,5.8,-,N/A,,Clear,140,2013-06-30 19:15:00
2:35 PM,80.8,49.6,34,30.07,10.0,NNE,3.5,-,N/A,,Clear,30,2013-06-30 19:35:00
2:55 PM,82.6,50.4,33,30.06,10.0,ENE,5.8,-,N/A,,Clear,60,2013-06-30 19:55:00
3:15 PM,81.7,50.0,33,30.06,10.0,NNW,3.5,-,N/A,,Clear,340,2013-06-30 20:15:00
3:35 PM,82.0,50.7,34,30.06,10.0,Calm,Calm,-,N/A,,Scattered Clouds,0,2013-06-30 20:35:00
3:55 PM,82.6,50.9,33,30.06,10.0,Calm,Calm,-,N/A,,Scattered Clouds,0,2013-06-30 20:55:00
4:15 PM,81.5,50.5,34,30.06,10.0,East,5.8,-,N/A,,Scattered Clouds,80,2013-06-30 21:15:00
4:35 PM,82.4,50.5,33,30.06,10.0,East,3.5,-,N/A,,Scattered Clouds,100,2013-06-30 21:35:00
4:55 PM,81.9,50.7,34,30.07,10.0,East,3.5,-,N/A,,Clear,100,2013-06-30 21:55:00
5:15 PM,81.5,51.3,35,30.07,10.0,ESE,5.8,-,N/A,,Mostly Cloudy,110,2013-06-30 22:15:00
5:35 PM,79.0,50.5,37,30.07,10.0,East,5.8,-,N/A,,Overcast,100,2013-06-30 22:35:00
5:55 PM,78.8,50.5,37,30.07,10.0,East,5.8,-,N/A,,Scattered Clouds,100,2013-06-30 22:55:00
6:15 PM,79.7,50.9,37,30.07,10.0,ESE,5.8,-,N/A,,Clear,110,2013-06-30 23:15:00
6:35 PM,79.7,51.4,37,30.07,10.0,East,4.6,-,N/A,,Clear,100,2013-06-30 23:35:00
6:55 PM,78.6,51.1,38,30.07,10.0,East,4.6,-,N/A,,Clear,100,2013-06-30 23:55:00
7:15 PM,77.2,54.1,45,30.07,10.0,East,4.6,-,N/A,,Clear,80,2013-07-01 00:15:00
7:35 PM,76.1,53.1,45,30.07,10.0,NE,3.5,-,N/A,,Clear,50,2013-07-01 00:35:00
7:55 PM,74.3,55.8,52,30.07,10.0,Calm,Calm,-,N/A,,Clear,0,2013-07-01 00:55:00
8:15 PM,72.5,56.3,57,30.07,10.0,Calm,Calm,-,N/A,,Clear,0,2013-07-01 01:15:00
8:35 PM,68.7,56.1,64,30.07,10.0,Calm,Calm,-,N/A,,Clear,0,2013-07-01 01:35:00
8:55 PM,64.8,56.8,75,30.08,10.0,Calm,Calm,-,N/A,,Clear,0,2013-07-01 01:55:00
9:15 PM,63.5,57.0,79,30.09,10.0,Calm,Calm,-,N/A,,Clear,0,2013-07-01 02:15:00
9:35 PM,61.0,57.0,87,30.09,10.0,Calm,Calm,-,N/A,,Clear,0,2013-07-01 02:35:00
9:55 PM,59.4,56.5,90,30.09,10.0,Calm,Calm,-,N/A,,Clear,0,2013-07-01 02:55:00
10:15 PM,57.9,55.6,92,30.10,10.0,Calm,Calm,-,N/A,,Clear,0,2013-07-01 03:15:00
10:35 PM,58.6,55.4,89,30.11,10.0,WSW,3.5,-,N/A,,Clear,250,2013-07-01 03:35:00
10:55 PM,57.9,54.9,90,30.11,10.0,Calm,Calm,-,N/A,,Clear,0,2013-07-01 03:55:00
11:15 PM,57.4,55.4,93,30.11,10.0,Calm,Calm,-,N/A,,Clear,0,2013-07-01 04:15:00
11:35 PM,56.3,54.1,92,30.11,10.0,Calm,Calm,-,N/A,,Clear,0,2013-07-01 04:35:00
11:55 PM,55.2,53.6,94,30.12,10.0,Calm,Calm,-,N/A,,Clear,0,2013-07-01 04:55:00